When you browse on this site, cookies collect data to enhance your experience and personalize the content and advertising you see.
Visit our Privacy Policy to learn more. By continuing to use the site, you agree to this use of cookies and data.
  • In Hungary
  • List of Countries
  • For 7 days
  • Water Temperature
  • Weather Map
  • News
  • Weather Widgets
  • user-avatar
    Login

    Hourly Weather Laksau

    Today, 11 December, Wednesday

    Time Temperature Precipitation Wind Pressure Humidity
    00:00 +8°C° 0 mm 1 mps 703 mmHg 75%
    01:00 +8°C° 0 mm 1 mps 703 mmHg 72%
    02:00 +8°C° 0 mm 1 mps 703 mmHg 70%
    03:00 +8°C° 0 mm 1 mps 703 mmHg 68%
    04:00 +8°C° 0 mm 1 mps 703 mmHg 67%
    05:00 +8°C° 0 mm 1 mps 703 mmHg 67%
    06:00 +8°C° 0 mm 1 mps 704 mmHg 67%
    07:00 +9°C° 0 mm 1 mps 704 mmHg 68%
    08:00 +12°C° 0 mm 1 mps 705 mmHg 60%
    09:00 +15°C° 0 mm 1 mps 706 mmHg 51%
    10:00 +19°C° 0 mm 2 mps 707 mmHg 43%
    11:00 +20°C° 0 mm 2 mps 706 mmHg 42%
    12:00 +21°C° 0 mm 2 mps 705 mmHg 40%
    13:00 +24°C° 0 mm 2 mps 704 mmHg 39%
    14:00 +23°C° 0 mm 2 mps 704 mmHg 43%
    15:00 +21°C° 0 mm 2 mps 704 mmHg 48%
    16:00 +20°C° 0 mm 2 mps 703 mmHg 53%
    17:00 +18°C° 0 mm 2 mps 703 mmHg 66%
    18:00 +15°C° 0 mm 2 mps 703 mmHg 79%
    19:00 +12°C° 0 mm 1 mps 703 mmHg 92%
    20:00 +12°C° 0 mm 1 mps 703 mmHg 94%
    21:00 +11°C° 0 mm 1 mps 704 mmHg 96%
    22:00 +11°C° 0 mm 1 mps 704 mmHg 98%
    23:00 +10°C° 0 mm 1 mps 704 mmHg 98%

    Tomorrow, 12 December, Thursday

    Time Temperature Precipitation Wind Pressure Humidity
    00:00 +10°C° 0 mm 1 mps 704 mmHg 98%
    01:00 +10°C° 0 mm 1 mps 704 mmHg 98%
    02:00 +10°C° 0 mm 1 mps 704 mmHg 98%
    03:00 +10°C° 0 mm 1 mps 704 mmHg 98%
    04:00 +10°C° 0 mm 1 mps 703 mmHg 98%
    05:00 +10°C° 0 mm 1 mps 704 mmHg 97%
    06:00 +10°C° 0 mm 1 mps 704 mmHg 97%
    07:00 +11°C° 0 mm 1 mps 705 mmHg 96%
    08:00 +14°C° 0 mm 1 mps 706 mmHg 84%
    09:00 +18°C° 0 mm 1 mps 706 mmHg 71%
    10:00 +21°C° 0 mm 1 mps 707 mmHg 58%
    11:00 +22°C° 0 mm 1 mps 706 mmHg 55%
    12:00 +23°C° 0 mm 2 mps 706 mmHg 52%
    13:00 +24°C° 0 mm 2 mps 705 mmHg 49%
    14:00 +23°C° 0 mm 2 mps 705 mmHg 53%
    15:00 +21°C° 0 mm 2 mps 704 mmHg 57%
    16:00 +20°C° 0 mm 2 mps 703 mmHg 61%
    17:00 +18°C° 0 mm 2 mps 704 mmHg 72%
    18:00 +16°C° 0 mm 2 mps 704 mmHg 83%
    19:00 +13°C° 0 mm 1 mps 704 mmHg 94%
    20:00 +13°C° 0 mm 1 mps 704 mmHg 95%
    21:00 +13°C° 0 mm 1 mps 705 mmHg 96%
    22:00 +12°C° 0 mm 1 mps 705 mmHg 98%
    23:00 +12°C° 0 mm 1 mps 705 mmHg 98%

    Day after tomorrow, 13 December, Friday

    Time Temperature Precipitation Wind Pressure Humidity
    00:00 +12°C° 0 mm 1 mps 704 mmHg 98%
    01:00 +12°C° 0 mm 1 mps 704 mmHg 98%
    02:00 +12°C° 0 mm 1 mps 704 mmHg 98%
    03:00 +12°C° 0 mm 1 mps 704 mmHg 97%
    04:00 +13°C° 0 mm 1 mps 704 mmHg 97%
    05:00 +13°C° 0 mm 1 mps 705 mmHg 97%
    06:00 +13°C° 0 mm 1 mps 705 mmHg 97%
    07:00 +14°C° 0 mm 1 mps 706 mmHg 97%
    08:00 +16°C° 0 mm 1 mps 706 mmHg 86%
    09:00 +20°C° 0 mm 1 mps 707 mmHg 74%
    10:00 +21°C° 0 mm 2 mps 708 mmHg 63%
    11:00 +23°C° 0 mm 2 mps 707 mmHg 61%
    12:00 +24°C° 0 mm 2 mps 706 mmHg 59%
    13:00 +24°C° 0 mm 2 mps 706 mmHg 57%
    14:00 +24°C° 0 mm 2 mps 705 mmHg 59%
    15:00 +23°C° 0 mm 2 mps 705 mmHg 62%
    16:00 +21°C° 0 mm 2 mps 705 mmHg 64%
    17:00 +19°C° 0 mm 2 mps 705 mmHg 75%
    18:00 +17°C° 0 mm 2 mps 705 mmHg 85%
    19:00 +15°C° 0 mm 1 mps 705 mmHg 96%
    20:00 +15°C° 0 mm 1 mps 705 mmHg 96%
    21:00 +15°C° 0 mm 1 mps 706 mmHg 97%
    22:00 +14°C° 0 mm 1 mps 706 mmHg 98%
    23:00 +14°C° 0 mm 1 mps 706 mmHg 98%

    14 December, Saturday

    Time Temperature Precipitation Wind Pressure Humidity
    00:00 +14°C° 0 mm 1 mps 705 mmHg 98%
    01:00 +14°C° 0 mm 1 mps 705 mmHg 98%
    02:00 +14°C° 0 mm 1 mps 705 mmHg 98%
    03:00 +15°C° 0 mm 1 mps 705 mmHg 98%
    04:00 +15°C° 0 mm 1 mps 705 mmHg 98%
    05:00 +15°C° 0 mm 1 mps 705 mmHg 98%
    06:00 +15°C° 0 mm 1 mps 705 mmHg 98%
    07:00 +15°C° 0 mm 1 mps 706 mmHg 98%
    08:00 +19°C° 0 mm 1 mps 706 mmHg 86%
    09:00 +21°C° 0 mm 1 mps 707 mmHg 75%
    10:00 +24°C° 0 mm 1 mps 707 mmHg 64%
    11:00 +25°C° 0 mm 1 mps 707 mmHg 60%
    12:00 +25°C° 0 mm 2 mps 706 mmHg 57%
    13:00 +26°C° 0 mm 2 mps 706 mmHg 53%
    14:00 +26°C° 0 mm 2 mps 705 mmHg 56%
    15:00 +25°C° 0 mm 2 mps 705 mmHg 59%
    16:00 +24°C° 0 mm 2 mps 704 mmHg 62%
    17:00 +21°C° 0 mm 2 mps 704 mmHg 73%
    18:00 +20°C° 0 mm 1 mps 704 mmHg 84%
    19:00 +18°C° 0 mm 1 mps 704 mmHg 95%
    20:00 +16°C° 0 mm 1 mps 704 mmHg 96%
    21:00 +16°C° 0 mm 1 mps 705 mmHg 97%
    22:00 +16°C° 0 mm 1 mps 705 mmHg 98%
    23:00 +16°C° 0 mm 1 mps 705 mmHg 98%

    15 December, Sunday

    Time Temperature Precipitation Wind Pressure Humidity
    00:00 +16°C° 0 mm 1 mps 705 mmHg 98%
    01:00 +15°C° 0 mm 1 mps 704 mmHg 98%
    02:00 +15°C° 0 mm 1 mps 704 mmHg 98%
    03:00 +15°C° 0 mm 1 mps 704 mmHg 98%
    04:00 +15°C° 0 mm 1 mps 704 mmHg 98%
    05:00 +15°C° 0 mm 1 mps 704 mmHg 98%
    06:00 +15°C° 0 mm 1 mps 704 mmHg 98%
    07:00 +15°C° 0 mm 1 mps 705 mmHg 98%
    08:00 +19°C° 0 mm 1 mps 705 mmHg 85%
    09:00 +22°C° 0 mm 1 mps 706 mmHg 72%
    10:00 +25°C° 0 mm 1 mps 707 mmHg 60%
    11:00 +26°C° 0 mm 1 mps 706 mmHg 55%
    12:00 +27°C° 0 mm 1 mps 705 mmHg 51%
    13:00 +29°C° 0 mm 1 mps 705 mmHg 47%
    14:00 +28°C° 0 mm 1 mps 704 mmHg 51%
    15:00 +27°C° 0 mm 1 mps 704 mmHg 55%
    16:00 +26°C° 0 mm 2 mps 703 mmHg 60%
    17:00 +24°C° 0 mm 1 mps 703 mmHg 72%
    18:00 +21°C° 0 mm 1 mps 703 mmHg 83%
    19:00 +19°C° 0 mm 1 mps 703 mmHg 95%
    20:00 +18°C° 0 mm 1 mps 704 mmHg 96%
    21:00 +18°C° 0 mm 1 mps 704 mmHg 97%
    22:00 +18°C° 0 mm 1 mps 704 mmHg 98%
    23:00 +18°C° 0 mm 1 mps 704 mmHg 98%

    16 December, Monday

    Time Temperature Precipitation Wind Pressure Humidity
    00:00 +16°C° 0 mm 1 mps 704 mmHg 98%
    01:00 +16°C° 0 mm 1 mps 704 mmHg 98%
    02:00 +16°C° 0 mm 1 mps 703 mmHg 98%
    03:00 +16°C° 0 mm 1 mps 703 mmHg 98%
    04:00 +16°C° 0 mm 1 mps 703 mmHg 98%
    05:00 +16°C° 0 mm 1 mps 703 mmHg 98%
    06:00 +16°C° 0 mm 1 mps 704 mmHg 97%
    07:00 +18°C° 0 mm 1 mps 704 mmHg 97%
    08:00 +20°C° 0 mm 1 mps 704 mmHg 85%
    09:00 +23°C° 0 mm 1 mps 705 mmHg 74%
    10:00 +25°C° 0 mm 1 mps 706 mmHg 62%
    11:00 +27°C° 0 mm 1 mps 705 mmHg 57%
    12:00 +28°C° 0 mm 1 mps 704 mmHg 53%
    13:00 +29°C° 0 mm 1 mps 704 mmHg 48%
    14:00 +29°C° 0 mm 1 mps 703 mmHg 51%
    15:00 +28°C° 0 mm 1 mps 703 mmHg 55%
    16:00 +27°C° 0 mm 1 mps 702 mmHg 58%
    17:00 +25°C° 0 mm 1 mps 702 mmHg 70%
    18:00 +22°C° 0 mm 1 mps 702 mmHg 82%
    19:00 +20°C° 0 mm 1 mps 702 mmHg 94%
    20:00 +19°C° 0 mm 1 mps 703 mmHg 95%
    21:00 +19°C° 0 mm 1 mps 703 mmHg 96%
    22:00 +19°C° 0 mm 1 mps 703 mmHg 98%
    23:00 +19°C° 0 mm 1 mps 703 mmHg 98%
    Show more